[[{"header":{"parameterUnit":"m.s-1","parameterCategory":1,"la1":30.2991,"la2":30.254,"lo1":-89.0895,"lo2":-89.0444,"dy":0.0017,"dx":0.0017,"nx":28,"ny":28,"refTime":"2024-11-26T03:00:00:Z","depth":0,"parameterNumber":2,"parameterNumberName":"U-component_of_WINDS"},"data":[0,0,0,0,0,0,0,0,0,0,0,0,0,0,0,0,0,0,0,0,0,0,0,0,0,0,0,0,0,0,0,0,0,0,0,0,0,0,0,0,0,0,0,0,0,0,0,0,0,0,0,0,0,0,0,0,0,0,-1.389,-1.389,0,-1.3836,-1.3835,-1.3834,-1.3774,-1.3773,-1.3772,-1.3771,-1.3713,-1.3713,-1.3712,0,0,0,0,0,0,0,0,0,0,0,0,0,-1.394,-1.3939,-1.389,-1.3889,-1.3889,-1.3836,-1.3835,-1.3834,-1.3774,-1.3773,-1.3772,-1.3771,-1.3714,-1.3713,-1.3712,0,0,0,0,0,0,0,0,0,0,0,0,0,-1.3905,-1.3939,-1.389,-1.3852,-1.3848,-1.3836,-1.3835,-1.3834,-1.3774,-1.3773,-1.3771,-1.377,-1.3714,-1.3713,-1.3712,-1.3732,0,0,-1.3708,-1.3708,0,0,0,0,0,0,0,0,-1.3907,-1.3903,-1.3859,-1.3855,-1.385,-1.381,-1.3831,-1.38,-1.3774,-1.3802,-1.3771,-1.3769,-1.3746,-1.3743,-1.3735,-1.3729,-1.3727,-1.3708,-1.3708,-1.3707,-1.3707,0,0,0,0,0,0,0,-1.391,-1.3905,-1.3868,-1.3858,-1.3853,-1.3837,-1.3831,-1.3825,-1.3782,-1.38,-1.3795,-1.379,-1.3744,-1.3736,-1.3733,-1.3726,-1.3708,-1.3707,-1.3707,-1.3706,-1.3732,-1.3734,0,0,0,0,0,0,-1.3918,-1.3908,-1.387,-1.3867,-1.3876,-1.3838,-1.383,-1.3824,-1.3782,-1.3775,-1.3791,-1.3787,-1.3739,-1.3735,-1.3731,-1.3751,-1.3707,-1.3706,-1.3706,-1.3731,-1.3733,-1.3734,0,0,0,0,0,0,-1.3919,-1.3915,-1.3872,-1.3886,-1.3879,-1.3838,-1.3832,-1.3824,-1.3816,-1.3776,-1.3767,-1.3791,-1.3738,-1.3733,-1.3732,-1.3748,-1.3706,-1.3705,-1.373,-1.3732,-1.3733,-1.3792,0,0,0,0,0,0,-1.3921,-1.3916,-1.3924,-1.3887,-1.3879,-1.3875,-1.3833,-1.3824,-1.3815,-1.3809,-1.3774,-1.3766,-1.3736,-1.3734,-1.3731,-1.3746,-1.3704,-1.3728,-1.373,-1.3733,-1.3789,-1.3796,-1.3802,0,0,0,0,0,-1.3923,-1.3942,-1.3925,-1.392,-1.3888,-1.3876,-1.3872,-1.3837,-1.3817,-1.3823,-1.3797,-1.3768,-1.3747,-1.3734,-1.3731,-1.3746,-1.3727,-1.373,-1.3733,-1.3786,-1.3795,-1.3802,0,0,0,0,0,0,-1.3982,-1.3937,-1.3917,-1.3924,-1.3905,-1.3866,-1.3874,-1.3848,-1.3833,-1.3828,-1.3785,-1.3778,-1.3782,-1.3764,-1.375,-1.3763,-1.3733,-1.3735,-1.3774,-1.3783,-1.3789,-1.3793,-1.3703,0,0,0,0,0,-1.3996,-1.3991,-1.3951,-1.3962,-1.3953,-1.3915,-1.3909,-1.3884,-1.3862,-1.3853,-1.3826,-1.3805,-1.3794,-1.3787,-1.3775,-1.3786,-1.3777,-1.3794,-1.3801,-1.3807,-1.3809,-1.3813,-1.3821,-1.3744,-1.3744,-1.3744,0,0,-1.4024,-1.3999,-1.3998,-1.3973,-1.3955,-1.395,-1.3909,-1.3905,-1.3901,-1.3852,-1.385,-1.383,-1.3803,-1.3809,-1.381,-1.3793,-1.3829,-1.3811,-1.3816,-1.3815,-1.3817,-1.3825,-1.3831,-1.3746,-1.3746,-1.3745,0,0,-1.4073,-1.4054,-1.4061,-1.4044,-1.4017,-1.3991,-1.3993,-1.3958,-1.3943,-1.3941,-1.3904,-1.3898,-1.3879,-1.3862,-1.385,-1.3893,-1.3865,-1.389,-1.3926,-1.393,-1.3936,-1.3942,-1.3956,-1.3962,-1.3893,-1.3893,-1.3893,0,-1.4112,-1.4104,-1.4067,-1.4066,-1.4056,-1.4012,-1.4018,-1.4003,-1.3973,-1.3967,-1.3949,-1.3925,-1.3904,-1.3905,-1.3915,-1.3908,-1.3908,-1.3894,-1.3939,-1.3943,-1.3948,-1.3961,-1.3967,-1.3896,-1.3896,-1.3896,-1.3895,0,-1.4152,-1.4147,-1.4155,-1.4128,-1.4119,-1.4122,-1.4085,-1.408,-1.4056,-1.4033,-1.403,-1.4003,-1.3985,-1.3983,-1.3959,-1.398,-1.3971,-1.3947,-1.3916,-1.3959,-1.3971,-1.3976,-1.3901,-1.39,-1.3899,-1.3898,0,0,-1.4236,-1.419,-1.4193,-1.418,-1.4147,-1.4142,-1.4143,-1.4125,-1.4121,-1.4102,-1.4101,-1.4086,-1.4064,-1.4051,-1.4025,-1.4029,-1.4064,-1.4004,-1.4003,-1.4016,-1.4085,-1.4103,-1.4109,-1.4046,-1.4047,-1.4047,-1.4087,0,-1.4279,-1.4278,-1.4245,-1.4252,-1.4247,-1.4205,-1.4205,-1.4185,-1.4163,-1.4155,-1.413,-1.412,-1.4092,-1.4084,-1.4086,-1.406,-1.4077,-1.4056,-1.4043,-1.4043,-1.4051,-1.4115,-1.4134,-1.4173,-1.4091,-1.4092,-1.4092,0,-1.4329,-1.4314,-1.4321,-1.4288,-1.4284,-1.4285,-1.4266,-1.4258,-1.4234,-1.4218,-1.4204,-1.4175,-1.4172,-1.4143,-1.4138,-1.4125,-1.4117,-1.4104,-1.4104,-1.4101,-1.407,-1.4114,-1.4184,-1.419,-1.41,-1.4099,-1.4098,0,-1.4389,-1.437,-1.4372,-1.4362,-1.4324,-1.4325,-1.4309,-1.4284,-1.4275,-1.4258,-1.4252,-1.4235,-1.4225,-1.4212,-1.4179,-1.4161,-1.4178,-1.4146,-1.4163,-1.4164,-1.4168,-1.4168,-1.4238,-1.4165,-1.4164,-1.4164,-1.4164,0,-1.444,-1.4446,-1.4398,-1.4399,-1.4404,-1.4366,-1.4372,-1.4352,-1.433,-1.4326,-1.4289,-1.4285,-1.4242,-1.4233,-1.4207,-1.4207,-1.4203,-1.4189,-1.4182,-1.4192,-1.4194,-1.4186,-1.4182,-1.4166,-1.4166,-1.4165,-1.4165,0,-1.4507,-1.4476,-1.4475,-1.4439,-1.443,-1.4435,-1.4404,-1.4403,-1.4379,-1.4374,-1.4371,-1.4333,-1.4321,-1.4287,-1.4266,-1.4248,-1.4255,-1.4242,-1.4264,-1.4259,-1.4278,-1.4276,-1.4345,-1.4351,-1.4275,-1.4275,-1.4276,0,-1.4542,-1.4545,-1.451,-1.4505,-1.4491,-1.4483,-1.4474,-1.4437,-1.4429,-1.4402,-1.4404,-1.439,-1.4376,-1.4359,-1.4329,-1.4312,-1.4298,-1.4323,-1.4296,-1.4306,-1.4298,-1.4298,-1.4298,-1.4329,-1.433,-1.4331,-1.4332,0,-1.4606,-1.459,-1.4579,-1.4563,-1.4554,-1.4539,-1.4522,-1.4519,-1.4478,-1.4471,-1.4459,-1.4448,-1.4427,-1.4413,-1.4392,-1.4374,-1.4346,-1.4341,-1.4344,-1.4354,-1.4366,-1.436,-1.428,-1.434,-1.4339,-1.4338,-1.4338,-1.4338,-1.4657,-1.4658,-1.4634,-1.4623,-1.4606,-1.4591,-1.4589,-1.4565,-1.4554,-1.4535,-1.4513,-1.4504,-1.4479,-1.4448,-1.4432,-1.4424,-1.4409,-1.4413,-1.4414,-1.4416,-1.442,-1.4369,-1.442,-1.4419,-1.4419,-1.4419,-1.4419,0,-1.4719,-1.4701,-1.4691,-1.4669,-1.466,-1.4636,-1.4615,-1.461,-1.4602,-1.4581,-1.4569,-1.4555,-1.4541,-1.451,-1.4493,-1.4492,-1.4478,-1.4488,-1.4488,-1.4484,-1.4435,-1.4434,-1.45,-1.45,-1.45,-1.45,-1.45,-1.45,-1.475,-1.475,-1.4732,-1.4724,-1.4706,-1.4696,-1.4687,-1.4673,-1.4656,-1.4643,-1.4631,-1.4611,-1.4587,-1.4568,-1.4553,-1.4545,-1.454,-1.4554,-1.4541,-1.4495,-1.4488,-1.448,-1.4479,-1.4553,-1.4554,-1.4591,-1.4591,-1.4592]},{"header":{"parameterUnit":"m.s-1","parameterCategory":1,"la1":30.2991,"la2":30.254,"lo1":-89.0895,"lo2":-89.0444,"dy":0.0017,"dx":0.0017,"nx":28,"ny":28,"refTime":"2024-11-26T03:00:00:Z","depth":0,"parameterNumber":3,"parameterNumberName":"V-component_of_WINDS"},"data":[0,0,0,0,0,0,0,0,0,0,0,0,0,0,0,0,0,0,0,0,0,0,0,0,0,0,0,0,0,0,0,0,0,0,0,0,0,0,0,0,0,0,0,0,0,0,0,0,0,0,0,0,0,0,0,0,0,0,-2.0862,-2.0862,0,-2.0949,-2.095,-2.0951,-2.095,-2.0949,-2.0948,-2.0947,-2.1034,-2.1037,-2.1041,0,0,0,0,0,0,0,0,0,0,0,0,0,-2.069,-2.0693,-2.0861,-2.0863,-2.0864,-2.0949,-2.0951,-2.0952,-2.095,-2.0949,-2.0948,-2.0946,-2.1033,-2.1037,-2.1041,0,0,0,0,0,0,0,0,0,0,0,0,0,-2.077,-2.0694,-2.0861,-2.0873,-2.0875,-2.0949,-2.0951,-2.0952,-2.0951,-2.0949,-2.0947,-2.0946,-2.1032,-2.1037,-2.1042,-2.1108,0,0,-2.1057,-2.1059,0,0,0,0,0,0,0,0,-2.0765,-2.0776,-2.0871,-2.0873,-2.0875,-2.0937,-2.0922,-2.1004,-2.0951,-2.0922,-2.0947,-2.0945,-2.1003,-2.101,-2.1031,-2.1112,-2.1116,-2.1058,-2.1061,-2.1063,-2.1064,0,0,0,0,0,0,0,-2.076,-2.0772,-2.0896,-2.0872,-2.0875,-2.0874,-2.0883,-2.0938,-2.0971,-2.0924,-2.0925,-2.0935,-2.1004,-2.1026,-2.1033,-2.1117,-2.1058,-2.1062,-2.1065,-2.1067,-2.1258,-2.126,0,0,0,0,0,0,-2.0752,-2.0768,-2.0893,-2.0899,-2.0815,-2.0878,-2.0889,-2.0919,-2.0971,-2.0977,-2.0937,-2.0935,-2.1018,-2.1027,-2.1036,-2.1117,-2.1063,-2.1068,-2.1071,-2.1256,-2.1258,-2.1261,0,0,0,0,0,0,-2.0748,-2.0763,-2.089,-2.0833,-2.0849,-2.0883,-2.0917,-2.0922,-2.0943,-2.098,-2.0985,-2.0953,-2.1017,-2.1029,-2.109,-2.112,-2.107,-2.1075,-2.1254,-2.1257,-2.1259,-2.128,0,0,0,0,0,0,-2.0743,-2.0762,-2.0788,-2.0834,-2.0852,-2.0944,-2.0919,-2.0925,-2.0953,-2.0951,-2.0997,-2.1002,-2.1016,-2.1083,-2.1095,-2.1126,-2.1079,-2.1251,-2.1255,-2.1259,-2.1277,-2.1283,-2.1289,0,0,0,0,0,-2.0737,-2.079,-2.0789,-2.0805,-2.0886,-2.0945,-2.0956,-2.0972,-2.0955,-2.0981,-2.1005,-2.1001,-2.1115,-2.1089,-2.1103,-2.1136,-2.1249,-2.1254,-2.1258,-2.1274,-2.1282,-2.1289,0,0,0,0,0,0,-2.0745,-2.0796,-2.0796,-2.0865,-2.0901,-2.0945,-2.0978,-2.098,-2.102,-2.1017,-2.1034,-2.1044,-2.1106,-2.1127,-2.1098,-2.1203,-2.118,-2.1187,-2.1187,-2.1195,-2.1201,-2.1194,-2.1083,0,0,0,0,0,-2.0755,-2.08,-2.0842,-2.0898,-2.0917,-2.0945,-2.0971,-2.098,-2.1018,-2.1033,-2.1061,-2.1097,-2.1141,-2.1169,-2.1211,-2.128,-2.129,-2.131,-2.1316,-2.1321,-2.1327,-2.1364,-2.1374,-2.1275,-2.1275,-2.1275,0,0,-2.0775,-2.0809,-2.0836,-2.0901,-2.093,-2.0975,-2.0957,-2.1006,-2.104,-2.104,-2.11,-2.1122,-2.1163,-2.1229,-2.1259,-2.1248,-2.1356,-2.1326,-2.133,-2.1333,-2.137,-2.1379,-2.1388,-2.1278,-2.1278,-2.1277,0,0,-2.0836,-2.0866,-2.0917,-2.0947,-2.0991,-2.101,-2.1022,-2.1066,-2.1081,-2.1142,-2.1143,-2.1183,-2.1259,-2.1288,-2.1313,-2.1386,-2.1384,-2.1399,-2.143,-2.1467,-2.1475,-2.1482,-2.1507,-2.1516,-2.1405,-2.1405,-2.1405,0,-2.0855,-2.0925,-2.0942,-2.0992,-2.102,-2.1024,-2.1075,-2.1102,-2.1158,-2.1177,-2.1165,-2.126,-2.1288,-2.136,-2.1378,-2.1398,-2.1412,-2.1393,-2.1472,-2.1479,-2.1486,-2.1511,-2.152,-2.1407,-2.1406,-2.1406,-2.1406,0,-2.0947,-2.0995,-2.103,-2.1085,-2.1118,-2.1167,-2.1192,-2.1222,-2.1229,-2.1249,-2.1311,-2.1345,-2.1394,-2.1412,-2.1419,-2.1486,-2.1478,-2.1469,-2.1446,-2.1497,-2.152,-2.153,-2.1409,-2.1408,-2.1408,-2.1407,0,0,-2.1013,-2.1078,-2.1091,-2.1116,-2.1166,-2.1203,-2.1253,-2.1303,-2.1329,-2.1367,-2.1409,-2.1473,-2.1465,-2.1494,-2.1504,-2.1536,-2.1591,-2.1523,-2.1524,-2.1534,-2.1667,-2.1673,-2.1684,-2.1591,-2.1593,-2.1594,-2.1664,0,-2.1079,-2.1169,-2.1186,-2.1264,-2.1308,-2.1313,-2.1357,-2.1392,-2.1411,-2.1451,-2.1473,-2.1518,-2.1505,-2.1522,-2.1554,-2.1578,-2.1618,-2.1573,-2.1629,-2.1631,-2.1618,-2.1696,-2.1703,-2.1767,-2.1673,-2.1674,-2.1676,0,-2.1167,-2.1209,-2.1291,-2.1336,-2.1355,-2.1394,-2.1441,-2.148,-2.152,-2.1532,-2.1564,-2.1571,-2.1622,-2.1597,-2.1668,-2.1637,-2.1661,-2.1676,-2.1679,-2.1684,-2.1656,-2.1703,-2.1788,-2.1797,-2.169,-2.1689,-2.1688,0,-2.1207,-2.1284,-2.1343,-2.1365,-2.1418,-2.1446,-2.1469,-2.1507,-2.1536,-2.1577,-2.1596,-2.1642,-2.1667,-2.1702,-2.1721,-2.1701,-2.179,-2.1767,-2.1801,-2.1801,-2.1819,-2.1818,-2.1908,-2.1836,-2.1835,-2.1835,-2.1835,0,-2.1277,-2.1327,-2.1362,-2.1398,-2.1455,-2.1474,-2.1529,-2.1552,-2.1587,-2.1627,-2.1634,-2.1671,-2.1694,-2.1735,-2.175,-2.1806,-2.1818,-2.1828,-2.1832,-2.1828,-2.1826,-2.1843,-2.1839,-2.1838,-2.1837,-2.1837,-2.1836,0,-2.1331,-2.1356,-2.1421,-2.1467,-2.148,-2.152,-2.1559,-2.1594,-2.1614,-2.1665,-2.1679,-2.171,-2.1759,-2.1781,-2.1841,-2.1851,-2.1915,-2.1915,-2.1902,-2.1903,-2.1936,-2.1932,-2.204,-2.2055,-2.1973,-2.1974,-2.1974,0,-2.1374,-2.1413,-2.1464,-2.1492,-2.1517,-2.1562,-2.1592,-2.1613,-2.1643,-2.1692,-2.1721,-2.1771,-2.1811,-2.1888,-2.1916,-2.1962,-2.1963,-2.1997,-2.197,-2.1964,-2.1963,-2.196,-2.1964,-2.2002,-2.2003,-2.2004,-2.2004,0,-2.1448,-2.1459,-2.1502,-2.155,-2.1586,-2.1625,-2.1662,-2.1685,-2.1712,-2.1746,-2.1796,-2.1827,-2.1889,-2.1938,-2.1986,-2.2009,-2.2011,-2.2013,-2.2023,-2.2019,-2.2009,-2.2015,-2.1915,-2.201,-2.2009,-2.2009,-2.2009,-2.2008,-2.1497,-2.1532,-2.1574,-2.1622,-2.1653,-2.1688,-2.1724,-2.1749,-2.1792,-2.1845,-2.1854,-2.1908,-2.1947,-2.2012,-2.2037,-2.2079,-2.207,-2.2085,-2.2089,-2.2092,-2.2094,-2.2004,-2.2087,-2.2087,-2.2087,-2.2087,-2.2087,0,-2.1571,-2.1598,-2.1643,-2.1696,-2.1734,-2.1734,-2.1776,-2.1807,-2.1855,-2.1892,-2.1932,-2.199,-2.2037,-2.2069,-2.2117,-2.2144,-2.2146,-2.2156,-2.2154,-2.2159,-2.2099,-2.2085,-2.2154,-2.2153,-2.2153,-2.2153,-2.2153,-2.2153,-2.1614,-2.1673,-2.1689,-2.1764,-2.179,-2.1844,-2.1868,-2.19,-2.193,-2.1995,-2.2035,-2.2056,-2.2091,-2.2142,-2.2185,-2.2193,-2.221,-2.222,-2.2228,-2.217,-2.2163,-2.2157,-2.2144,-2.2224,-2.2224,-2.2285,-2.2285,-2.2286]}]]